Regional Weather Roundup
Issued by NWS

Home | Current Version | Previous Version | Graphics & Text | Print | Product List | Glossary On
Versions: 1 2 3 4 5 6 7 8 9 10 11 12 13 14 15 16 17 18 19 20 21 22 23 24 25 26 27 28
000
ASUS45 KSLC 261110
RWRUT

UTAH REGIONAL WEATHER ROUNDUP
NATIONAL WEATHER SERVICE SALT LAKE CITY UT
500 AM MDT FRI AUG 26 2016

UTZ001>011-023>025-261200-

NORTHERN UTAH

CITY           SKY/WX    TMP DP  RH WIND       PRES   REMARKS
BRIGHAM CITY     N/A     55  38  52 CALM      30.04R
HILL AFB         N/A     61  30  31 SE18      30.05S
LOGAN            N/A     49  39  68 W8        30.06R
OGDEN            N/A     60  31  33 S12       30.02F
PROVO AIRPORT    N/A     61  39  44 SE10      30.07R
SALT LAKE CITY   N/A     68  35  29 S13       30.02S
VERNAL           N/A     50  40  68 W3        30.16S
WENDOVER         N/A     61  27  27 W5        30.02S
HEBER CITY       N/A     43  36  75 CALM      30.13R
WEST JORDAN      N/A     62  42  48 S12       30.05S

$$

UTZ012>022-026-027-261200-

SOUTHERN/CENTRAL UTAH

CITY           SKY/WX    TMP DP  RH WIND       PRES   REMARKS
BLANDING         N/A     50  48  93 CALM      30.29S
BRYCE CANYON   MOCLDY    46  43  89 S6        30.30S
CEDAR CITY       N/A     55  44  66 S5        30.15S
MILFORD          N/A     59  45  59 SE10      30.08S
MOAB/CYNLANDS    N/A     59  47  64 SE3       30.13S
PRICE            N/A     50  38  63 NE7       30.19F
ST GEORGE        N/A     68  48  49 E6        30.06S

$$

REGIONAL REPORTS     COLORADO/ARIZONA

CITY           SKY/WX    TMP DP  RH WIND       PRES   REMARKS
CRAIG, CO        N/A     47  38  71 CALM      30.22S
GRAND JUNCTION   N/A     53  48  83 E10       30.17S
RIFLE            N/A     49  48  97 CALM      30.23S
MONTROSE         N/A     50  46  86 S6        30.25S
CORTEZ           N/A     52  49  89 CALM      30.22F
PAGE, AZ         N/A     62  57  83 CALM      30.13F
GRAND CANYON     N/A    N/A N/A N/A MISG      30.28F
KINGMAN          N/A     72  52  49 SE15      30.01S
FLAGSTAFF      CLOUDY    50  50 100 E5        30.32S

$$

REGIONAL REPORTS    NEVADA/IDAHO/WYOMING

CITY           SKY/WX    TMP DP  RH WIND       PRES   REMARKS
LAS VEGAS, NV    N/A     82  40  22 CALM      29.86R
ELY              N/A     43  31  62 S5        30.14S
ELKO             N/A     48  22  35 E5        30.08S
POCATELLO, ID    N/A     41  33  73 S5        30.07R
BURLEY           N/A     45  41  86 CALM      30.03R
EVANSTON, WY     N/A     47  31  53 E9        30.20S
ROCK SPRINGS   MOCLDY    47  37  68 S8        30.19F

$$




USA.gov is the U.S. government's official web portal to all federal, state and local government web resources and services.